Estación de Purranque

Ultimos registro cada 15 minutos 42
Estación Fecha / Hora Temperatura Humedad Lluvia Velocidad Dirección Radiación Presion
42 Purranque 04-05-2026 10:15 10,2 98,2 0 3 27 35,6 1000,9
41 Purranque 04-05-2026 10:00 10,1 98,2 0,2 3 22 59,4 1000,9
40 Purranque 04-05-2026 09:45 10,1 97,9 0 3 25 54,4 1000,9
39 Purranque 04-05-2026 09:30 10 98,1 0 2,3 21 46,9 1000,9
38 Purranque 04-05-2026 09:15 9,8 97,9 0 2,7 31 24,4 1001
37 Purranque 04-05-2026 09:00 9,8 97,8 0 2,3 31 21,9 1000,9
36 Purranque 04-05-2026 08:45 9,8 97,7 0 2,7 25 13,1 1001
35 Purranque 04-05-2026 08:30 9,6 98,5 0 2,3 29 8,1 1001
34 Purranque 04-05-2026 08:15 9,5 98,7 0 2 37 8,1 1000,7
33 Purranque 04-05-2026 08:00 9,5 98,7 0 2 32 3,1 1000,6
32 Purranque 04-05-2026 07:45 9,5 98,8 0 2 28 0,6 1000,8
31 Purranque 04-05-2026 07:30 9,5 98,7 0 2 32 0,6 1000,6
30 Purranque 04-05-2026 07:15 9,5 98,8 0 2 28 0,6 1000,5
29 Purranque 04-05-2026 07:00 9,5 99 0 2 32 0,6 1000,5
28 Purranque 04-05-2026 06:45 9,5 99 0 2 29 0,6 1000,9
27 Purranque 04-05-2026 06:30 9,4 99,3 0 1,7 31 0,6 1000,8
26 Purranque 04-05-2026 06:15 9,4 99,3 0,2 2 27 0,6 1000,5
25 Purranque 04-05-2026 06:00 9,5 99,4 0 2 22 0,6 1000,8
24 Purranque 04-05-2026 05:45 9,5 99,4 0 1,7 27 0,6 1001,2
23 Purranque 04-05-2026 05:30 9,4 99,3 0 2 38 0,6 1001,1
22 Purranque 04-05-2026 05:15 9,5 99 0 1,3 29 0,6 1000,9
21 Purranque 04-05-2026 05:00 9,5 98,7 0 1 13 0,6 1001,1
20 Purranque 04-05-2026 04:45 9,5 98,5 0 0,7 6 0,6 1001,3
19 Purranque 04-05-2026 04:30 9,5 98,6 0 0,7 20 0,6 1001,3
18 Purranque 04-05-2026 04:15 9,5 98,4 0 1,3 28 0,6 1001,2
17 Purranque 04-05-2026 04:00 9,6 98,4 0 1,3 27 0,6 1001,5
16 Purranque 04-05-2026 03:45 9,4 98,4 0 1,3 35 0,6 1001,7
15 Purranque 04-05-2026 03:30 9,4 98,3 0 1,7 37 0,6 1001,7
14 Purranque 04-05-2026 03:15 9,3 98 0 1,3 24 0,6 1001,6
13 Purranque 04-05-2026 03:00 9,3 97,6 0 1,7 21 0,6 1001,9
12 Purranque 04-05-2026 02:45 9,3 97,3 0 1,3 22 0,6 1002
11 Purranque 04-05-2026 02:30 9,1 97,7 0 1 17 0,6 1001,9
10 Purranque 04-05-2026 02:15 9,1 97,7 0 1 13 0,6 1001,9
9 Purranque 04-05-2026 02:00 9 98,7 0 1 32 0,6 1002,1
8 Purranque 04-05-2026 01:45 9,1 98,9 0 1,3 22 0,6 1002,5
7 Purranque 04-05-2026 01:30 9,3 98,9 0 1,3 28 0,6 1002,7
6 Purranque 04-05-2026 01:15 9,4 99 0 1,7 22 0,6 1002,7
5 Purranque 04-05-2026 01:00 9,4 99,3 0 1,3 24 0,6 1002,7
4 Purranque 04-05-2026 00:45 9,4 99,5 0 1 28 0,6 1002,7
3 Purranque 04-05-2026 00:30 9,4 99,4 0,2 1 14 0,6 1003
2 Purranque 04-05-2026 00:15 9,5 99,1 0,2 0,3 317 0,6 1003,2
1 Purranque 04-05-2026 00:00 9,6 98,9 0,2 0,3 316 0,6 1003,2